Kaltag, AK

9:25 AM AKDT on September 26, 2017 (GMT -0800)
Kaltag

Weather History for PAKV - October, 2013

Change the Weather History Date:

Friday, October 4, 2013

  Actual Average (PAGA) Record (PAGA)
Temperature  
Mean Temperature 36 °F -  
Max Temperature 45 °F 36 °F 56 °F (1952)
Min Temperature 28 °F 24 °F 7 °F (1956)
Degree Days  
Heating Degree Days 28    
Moisture  
Dew Point 29 °F    
Average Humidity 70    
Maximum Humidity 88    
Minimum Humidity 56    
Precipitation  
Precipitation 0.00 in - - ()
Sea Level Pressure  
Sea Level Pressure 29.86 in    
Wind  
Wind Speed 6 mph (West)    
Max Wind Speed 8 mph    
Max Gust Speed -    
Visibility 10 miles    
Events      
Averages and records for this station are not official NWS values.
T = Trace of Precipitation, MM = Missing Value Source: NWS Daily Summary

Daily Weather History Graph

Daily Weather History Graph

Search for Another Location

Airport or City:

Trip Planner

Search our weather history database for the weather conditions in past years. The results will help you decide how hot, cold, wet, or windy it might be!

Date:

Astronomy

Oct. 04, 2013 Rise Set
Actual Time 8:54 AM AKDT 7:51 PM AKDT
Civil Twilight 8:06 AM AKDT 8:38 PM AKDT
Nautical Twilight 7:10 AM AKDT 9:34 PM AKDT
Astronomical Twilight 6:10 AM AKDT 10:34 PM AKDT
Moon 8:51 AM AKDT (10/4) 7:22 PM AKDT (10/4)
Length of Visible Light 12h 32m
Length of Day
10h 56m
Waning Crescent, 0% of the Moon is Illuminated
Oct 4
Waning Crescent
Oct 4
New
Oct 11
First Quarter
Oct 18
Full
Oct 26
Last Quarter

Hourly Weather History & Observations

Time (AKDT) Temp. Windchill Dew Point Humidity Pressure Visibility Wind Dir Wind Speed Gust Speed Precip Events Conditions
12:53 AM 41.0 °F 36.4 °F 30.9 °F 67% 29.80 in 10.0 mi NNE 6.9 mph - N/A   Overcast
1:20 AM 41.0 °F 38.0 °F 30.2 °F 65% 29.79 in 10.0 mi North 4.6 mph - N/A   Overcast
1:53 AM 41.0 °F 36.4 °F 30.9 °F 67% 29.81 in 10.0 mi North 6.9 mph - N/A   Overcast
2:53 AM 39.9 °F 34.5 °F 30.9 °F 70% 29.83 in 10.0 mi North 8.1 mph - N/A   Overcast
3:53 AM 39.9 °F 35.1 °F 30.0 °F 68% 29.83 in 10.0 mi NNE 6.9 mph - N/A   Overcast
4:53 AM 39.9 °F 35.1 °F 30.0 °F 68% 29.84 in 10.0 mi North 6.9 mph - N/A   Overcast
5:53 AM 39.9 °F 35.1 °F 30.0 °F 68% 29.84 in 10.0 mi NNW 6.9 mph - N/A   Overcast
6:53 AM 39.9 °F 36.7 °F 30.0 °F 68% 29.85 in 10.0 mi NW 4.6 mph - N/A   Overcast
7:10 AM 39.2 °F - 30.2 °F 70% 29.84 in 10.0 mi Calm Calm - N/A   Overcast
7:53 AM 39.9 °F 37.8 °F 30.0 °F 68% 29.86 in 10.0 mi NW 3.5 mph - N/A   Overcast
8:53 AM 37.0 °F 34.5 °F 28.9 °F 73% 29.87 in 10.0 mi SW 3.5 mph - N/A   Overcast
9:53 AM 35.1 °F 29.3 °F 28.0 °F 76% 29.88 in 10.0 mi SW 6.9 mph - N/A   Overcast
10:53 AM 35.1 °F 28.6 °F 28.0 °F 76% 29.89 in 10.0 mi SW 8.1 mph - N/A   Overcast
11:53 AM 37.0 °F 31.6 °F 28.9 °F 73% 29.90 in 10.0 mi SW 6.9 mph - N/A   Overcast
12:53 PM 39.0 °F 34.8 °F 28.9 °F 67% 29.91 in 10.0 mi WSW 5.8 mph - N/A   Overcast
1:53 PM 39.9 °F 35.8 °F 30.0 °F 68% 29.91 in 10.0 mi SW 5.8 mph - N/A   Overcast
2:53 PM 43.0 °F 41.3 °F 30.9 °F 62% 29.91 in 10.0 mi WSW 3.5 mph - N/A   Overcast
3:53 PM 43.0 °F 39.5 °F 30.9 °F 62% 29.91 in 10.0 mi WSW 5.8 mph - N/A   Overcast
4:53 PM 44.1 °F 40.1 °F 30.0 °F 58% 29.90 in 10.0 mi SW 6.9 mph - N/A   Overcast
5:53 PM 45.0 °F 43.5 °F 30.0 °F 56% 29.88 in 10.0 mi WSW 3.5 mph - N/A   Overcast
6:53 PM 43.0 °F 39.5 °F 28.9 °F 58% 29.88 in 10.0 mi WSW 5.8 mph - N/A   Overcast
7:53 PM 37.9 °F - 28.0 °F 68% 29.87 in 10.0 mi Calm Calm - N/A   Mostly Cloudy
8:53 PM 28.9 °F - 25.0 °F 85% 29.87 in 10.0 mi Calm Calm - N/A   Clear
9:53 PM 28.0 °F 24.2 °F 25.0 °F 88% 29.87 in 10.0 mi WSW 3.5 mph - N/A   Clear
10:53 PM 28.0 °F 24.2 °F 24.1 °F 85% 29.86 in 10.0 mi SW 3.5 mph - N/A   Clear
11:53 PM 28.9 °F 23.9 °F 25.0 °F 85% 29.85 in 10.0 mi SW 4.6 mph - N/A   Clear